Stations météo

Publicité
Tholey, Allemagne (10706): Température de l'air & dewpoint: 05.12.2019 11:00:00 - 11.12.2019 11:00:00 (CET)Tholey, Allemagne (10706): Température de l'air 5cm & Température de l'air -5cm: 05.12.2019 11:00:00 - 11.12.2019 11:00:00 (CET)Tholey, Allemagne (10706): Température de l'air -20cm & Température de l'air -100cm: 05.12.2019 11:00:00 - 11.12.2019 11:00:00 (CET)Tholey, Allemagne (10706): Vitesse du vent & gusts: 05.12.2019 11:00:00 - 11.12.2019 11:00:00 (CET)Tholey, Allemagne (10706): Direction du vent: 05.12.2019 11:00:00 - 11.12.2019 11:00:00 (CET)Tholey, Allemagne (10706): reduced air pressure: 05.12.2019 11:00:00 - 11.12.2019 11:00:00 (CET)Tholey, Allemagne (10706): visibility: 05.12.2019 11:00:00 - 11.12.2019 11:00:00 (CET)Tholey, Allemagne (10706): Ensoleillement: 05.12.2019 11:00:00 - 11.12.2019 11:00:00 (CET)Tholey, Allemagne (10706): Quantités de précipitations: 05.12.2019 11:00:00 - 11.12.2019 11:00:00 (CET)
Date & Time tt [°C] td [°C] tt 5cm [°C] tt -5cm [°C] tt -20cm [°C] tt -100cm [°C] ff [km/h] ff [knt] fx [km/h] fx [knt] dd ppp [hPa] vv [km] sd [min] rr [mm]
11.12.2019 11:00:00 1,4 1,2 1,5 2,1 3,1 7,4 9 5 14 8 SW 1012,8 3,3 0 0,5
11.12.2019 10:00:00 1,0 0,5 0,9 1,8 3,1 7,4 5 3 13 7 SSW 1013,3 3,6 0 0,6
11.12.2019 09:00:00 1,1 -0,2 0,7 1,7 3,1 7,4 7 4 10 5 SW 1014,0 14 0 0,7
11.12.2019 08:00:00 1,4 -0,5 0,7 1,6 3,1 7,4 4 2 13 7 SSE 1014,3 27 0 0,0
11.12.2019 07:00:00 1,3 -1,1 0,7 1,4 3,1 7,4 8 4 17 9 WSW 1015,0 35 0 0,0
11.12.2019 06:00:00 1,3 -1,5 0,9 1,4 3,2 7,4 10 6 16 9 WSW 1016,0 41 0 0,0
11.12.2019 05:00:00 1,4 -1,5 0,9 1,4 3,2 7,4 11 6 16 9 WSW 1016,6 49 0 0,0
11.12.2019 04:00:00 1,6 -1,4 0,9 1,5 3,2 7,4 8 5 15 8 WSW 1017,4 39 0 0,0
11.12.2019 03:00:00 1,7 -1,2 1,0 1,5 3,2 7,3 7 4 17 9 SW 1018,3 45 0 0,0
11.12.2019 02:00:00 1,7 -1,1 1,0 1,4 3,3 7,3 8 4 13 7 WSW 1019,2 40 0 0,0
11.12.2019 01:00:00 1,6 -0,9 0,6 1,4 3,3 7,3 4 2 18 10 WSW 1020,2 35 0 0,0
11.12.2019 00:00:00 1,5 -0,7 0,8 1,3 3,4 7,3 11 6 17 9 SW 1021,3 30 0 0,0
10.12.2019 23:00:00 1,3 -0,4 0,5 1,4 3,5 7,3 6 4 16 8 SW 1022,0 27 0 0,0
10.12.2019 22:00:00 1,1 -0,2 0,3 1,4 3,5 7,3 9 5 15 8 SW 1022,9 21 0 0,0
10.12.2019 21:00:00 1,5 0,0 0,4 1,5 3,6 7,3 9 5 16 9 SSW 1023,4 24 0 0,0
10.12.2019 20:00:00 1,4 0,5 0,4 1,5 3,7 7,3 9 5 15 8 S 1024,0 17 0 0,0
10.12.2019 19:00:00 1,0 0,5 -0,5 1,8 3,7 7,3 6 4 10 5 S 1024,8 13 0 0,0
10.12.2019 18:00:00 0,8 0,3 -0,5 2,3 3,7 7,3 4 2 12 7 W 1025,8 9 0 0,0
10.12.2019 17:00:00 1,4 0,5 1,2 2,5 3,7 7,3 11 6 18 10 WSW 1026,2 16 0 0,0
10.12.2019 16:00:00 1,2 0,4 1,3 2,7 3,7 7,3 10 5 20 11 SW 1026,9 13 0 0,0
10.12.2019 15:00:00 1,0 0,0 1,2 2,7 3,7 7,3 14 7 23 12 WSW 1027,7 14 0 0,0
10.12.2019 14:00:00 0,6 0,6 1,0 2,6 3,6 7,3 16 9 25 14 SW 1028,5 8 0 0,0
10.12.2019 13:00:00 0,1 0,1 0,8 2,6 3,6 7,3 11 6 21 12 SW 1029,4 0,1 0 0,0
10.12.2019 12:00:00 0,0 0,0 0,8 2,4 3,6 7,3 8 5 13 7 W 1030,0 0,1 0 0,0
10.12.2019 11:00:00 0,0 0,0 0,7 1,5 3,7 7,3 8 4 15 8 WSW 1030,0 0,1 0 0,0
10.12.2019 10:00:00 -0,3 -0,3 -0,2 1,1 3,8 7,3 10 5 14 8 W 1029,6 0,1 0 0,0
10.12.2019 09:00:00 -0,2 -0,2 -0,5 1,1 4,0 7,3 11 6 13 7 W 1029,0 0,4 0 0,0
10.12.2019 08:00:00 0,1 0,0 -2,3 1,1 4,1 7,3 3 2 10 5 WSW 1028,6 11 0 0,0
10.12.2019 07:00:00 0,4 0,1 -0,9 1,1 4,2 7,3 9 5 15 8 W 1028,2 14 0 0,0
10.12.2019 06:00:00 0,8 0,3 0,0 1,5 4,4 7,3 12 7 19 11 W 1027,8 15 0 0,0
10.12.2019 05:00:00 1,2 0,4 -0,2 1,6 4,5 7,2 16 8 20 11 W 1026,7 19 0 0,0
10.12.2019 04:00:00 1,4 0,4 0,6 2,0 4,7 7,2 10 5 16 9 W 1025,7 19 0 0,0
10.12.2019 03:00:00 1,2 0,1 0,6 2,1 4,8 7,2 11 6 18 10 W 1024,8 19 0 0,0
10.12.2019 02:00:00 2,4 0,0 0,3 2,7 4,9 7,2 9 5 16 9 W 1023,6 25 0 0,0
10.12.2019 01:00:00 3,2 0,4 2,4 3,1 5,0 7,2 8 4 24 13 WSW 1022,5 25 0 0,0
10.12.2019 00:00:00 3,4 0,2 1,9 3,5 5,1 7,2 9 5 32 17 WSW 1021,0 29 0 0,0
09.12.2019 23:00:00 4,1 0,7 2,0 3,8 5,2 7,1 6 3 31 17 SE 1019,2 29 0 0,0
09.12.2019 22:00:00 4,4 1,5 3,1 4,1 5,3 7,1 12 7 61 33 NNW 1017,3 36 0 0,0
09.12.2019 21:00:00 4,6 1,9 3,0 4,6 5,3 7,1 17 9 42 23 N 1014,8 37 0 0,2
09.12.2019 20:00:00 4,9 3,1 3,9 4,7 5,3 7,1 10 5 31 17 W 1012,3 27 0 0,1
09.12.2019 19:00:00 4,4 3,7 3,8 4,8 5,4 7,1 20 11 46 25 W 1009,4 4,8 0 2,6
09.12.2019 18:00:00 4,8 3,7 4,0 5,0 5,4 7,1 20 11 31 17 W 1007,8 11 0 0,2
09.12.2019 17:00:00 4,8 4,0 4,3 5,2 5,4 7,1 15 8 29 16 W 1006,7 41 0 0,0
09.12.2019 16:00:00 5,0 3,9 4,8 5,3 5,4 7,1 9 5 35 19 W 1005,5 73 10 0,0
09.12.2019 15:00:00 4,8 3,8 4,5 5,4 5,4 7,1 16 9 36 19 W 1004,4 56 0 0,7
09.12.2019 14:00:00 4,8 4,6 4,7 5,3 5,4 7,1 16 9 50 27 W 1003,4 6 0 1,6
09.12.2019 13:00:00 5,0 4,7 4,7 5,4 5,3 7,1 32 18 49 27 W 1002,7 9 0 0,8
09.12.2019 12:00:00 4,9 4,8 4,8 5,3 5,4 7,1 27 15 52 28 WSW 1002,5 4,4 0 1,2
09.12.2019 11:00:00 5,2 4,3 4,7 5,0 5,4 7,1 37 20 59 32 WSW 1002,0 12 0 0,9
09.12.2019 10:00:00 5,0 4,1 4,4 5,0 5,5 7,1 31 17 58 31 SW 1001,8 14 0 1,2
09.12.2019 09:00:00 5,0 4,1 4,4 4,9 5,5 7,1 35 19 64 35 WSW 1001,7 7 0 0,6
09.12.2019 08:00:00 5,0 4,0 4,3 4,9 5,6 7,1 34 18 64 35 SW 1001,9 33 0 0,8
09.12.2019 07:00:00 5,1 3,8 4,4 5,0 5,6 7,1 31 17 54 29 SW 1002,0 32 0 0,4
09.12.2019 06:00:00 5,4 3,6 4,5 5,1 5,7 7,1 27 15 54 29 SW 1002,6 31 0 0,0
09.12.2019 05:00:00 5,7 3,2 5,1 5,2 5,7 7,1 32 17 58 32 WSW 1003,1 47 0 0,0
09.12.2019 04:00:00 5,8 3,2 5,1 5,4 5,8 7,1 34 19 54 29 WSW 1003,6 56 0 0,0
09.12.2019 03:00:00 6,0 4,8 5,5 5,7 5,8 7,1 30 16 49 26 WSW 1004,2 34 0 0,0
09.12.2019 02:00:00 5,7 5,1 5,2 5,7 5,8 7,1 27 15 46 25 WSW 1004,5 19 0 0,5
09.12.2019 01:00:00 6,4 4,5 5,8 5,8 5,9 7,0 32 18 58 31 WSW 1004,7 28 0 0,0
09.12.2019 00:00:00 6,6 4,7 6,1 6,0 5,9 7,0 39 21 55 30 WSW 1004,9 27 0 0,0
08.12.2019 23:00:00 6,6 5,0 6,1 6,1 6,0 7,0 35 19 69 37 W 1004,9 28 0 0,0
08.12.2019 22:00:00 6,7 5,2 6,2 6,2 6,0 7,0 36 20 55 30 W 1005,2 30 0 0,0
08.12.2019 21:00:00 6,6 6,0 6,1 6,5 6,0 7,0 30 16 47 25 WSW 1005,4 33 0 0,0
08.12.2019 20:00:00 6,1 6,1 5,9 6,7 6,1 7,0 15 8 40 21 WSW 1005,7 9 0 0,3
08.12.2019 19:00:00 6,4 5,8 5,9 7,2 6,1 7,0 26 14 58 32 W 1005,8 3,3 0 4,0
08.12.2019 18:00:00 8,6 8,6 8,2 7,5 5,9 7,0 31 17 49 27 WSW 1004,7 2,7 0 2,4
08.12.2019 17:00:00 8,4 8,4 8,1 7,4 5,7 7,1 29 16 51 28 WSW 1005,3 2,5 0 2,3
08.12.2019 16:00:00 8,5 8,4 8,1 7,3 5,5 7,1 35 19 52 28 WSW 1005,8 2,1 0 2,4
08.12.2019 15:00:00 8,4 8,3 8,0 7,1 5,3 7,2 30 16 49 26 WSW 1006,5 4,3 0 1,6
08.12.2019 14:00:00 8,4 8,1 7,9 6,9 5,2 7,2 34 18 51 28 SW 1007,5 2,1 0 0,4
08.12.2019 13:00:00 8,3 7,8 7,7 6,7 5,1 7,2 31 17 53 28 SW 1008,3 24 0 0,3
08.12.2019 12:00:00 8,0 7,5 7,4 6,4 5,0 7,2 35 19 50 27 SW 1009,2 7 0 0,1
08.12.2019 11:00:00 8,1 7,0 7,4 6,1 5,0 7,2 33 18 55 30 SW 1010,5 52 0 0,0
08.12.2019 10:00:00 7,5 6,4 6,7 5,9 4,9 7,2 31 17 51 28 SW 1011,1 10 0 0,0
08.12.2019 09:00:00 6,9 6,4 6,4 5,7 4,9 7,2 26 14 42 23 SW 1012,0 13 0 0,0
08.12.2019 08:00:00 7,4 5,3 6,7 5,6 4,8 7,2 29 16 51 28 SW 1011,9 75 0 0,0
08.12.2019 07:00:00 6,9 5,3 6,0 5,5 4,8 7,2 21 12 40 21 WSW 1012,5 53 0 0,0
08.12.2019 06:00:00 6,9 5,4 6,3 5,4 4,8 7,2 22 12 37 20 WSW 1013,1 75 0 0,0
08.12.2019 05:00:00 6,5 5,7 5,8 5,4 4,7 7,2 20 11 40 22 WSW 1014,0 46 0 0,0
08.12.2019 04:00:00 6,5 5,2 5,7 5,3 4,7 7,2 26 14 37 20 WSW 1015,0 10 0 0,0
08.12.2019 03:00:00 6,7 4,8 6,0 5,3 4,7 7,2 23 13 36 20 SW 1015,4 56 0 0,0
08.12.2019 02:00:00 6,6 5,3 5,8 5,4 4,6 7,2 19 10 35 19 WSW 1016,7 49 0 0,0
08.12.2019 01:00:00 6,6 5,6 5,9 5,4 4,6 7,2 20 11 38 20 WSW 1017,4 38 0 0,0
08.12.2019 00:00:00 6,6 6,1 6,1 5,4 4,6 7,2 24 13 35 19 WSW 1017,9 23 0 0,0
07.12.2019 23:00:00 6,5 6,0 5,9 5,2 4,6 7,2 21 12 33 18 WSW 1018,2 24 0 0,0
07.12.2019 22:00:00 6,3 5,2 5,4 5,2 4,5 7,2 18 10 26 14 WSW 1018,7 38 0 0,0
07.12.2019 21:00:00 6,4 5,6 5,6 5,3 4,5 7,2 14 8 22 12 WSW 1018,9 30 0 0,0
07.12.2019 20:00:00 6,5 5,9 5,8 5,4 4,5 7,2 17 9 23 13 WSW 1018,8 23 0 0,0
07.12.2019 19:00:00 6,5 6,0 5,7 5,5 4,4 7,2 13 7 22 12 WSW 1018,7 20 0 0,0
07.12.2019 18:00:00 6,6 5,8 5,7 5,6 4,3 7,2 10 5 24 13 W 1018,5 28 0 0,0
07.12.2019 17:00:00 7,0 6,3 6,1 5,8 4,2 7,2 18 10 31 17 W 1017,9 29 0 0,0
07.12.2019 16:00:00 7,2 6,7 6,6 5,9 4,1 7,3 16 8 27 14 WSW 1017,8 23 0 0,0
07.12.2019 15:00:00 6,8 6,5 6,6 5,9 4,0 7,3 15 8 23 12 W 1017,4 24 0 0,1
07.12.2019 14:00:00 6,5 5,7 5,9 5,9 3,9 7,3 18 10 41 22 W 1017,3 7 0 0,1
07.12.2019 13:00:00 7,1 6,3 6,7 5,9 3,7 7,3 20 11 31 17 W 1017,3 44 0 0,0
07.12.2019 12:00:00 6,9 6,7 6,8 5,7 3,5 7,3 20 11 33 18 W 1017,2 17 0 0,1
07.12.2019 11:00:00 6,9 6,5 6,6 5,4 3,4 7,3 19 10 31 17 W 1017,3 11 0 0,1
07.12.2019 10:00:00 6,9 6,6 6,6 5,1 3,2 7,3 21 12 34 18 WSW 1016,5 22 0 0,0
07.12.2019 09:00:00 6,8 6,6 6,3 4,9 3,1 7,3 20 11 30 16 W 1016,1 13 0 0,1
07.12.2019 08:00:00 6,6 6,3 6,1 4,7 2,9 7,3 19 11 31 17 W 1015,5 25 0 0,0
07.12.2019 07:00:00 6,7 6,5 6,2 4,6 2,7 7,3 19 10 32 18 WSW 1014,8 6 0 0,0
07.12.2019 06:00:00 6,8 6,3 6,3 4,5 2,5 7,3 22 12 36 19 W 1014,0 30 0 0,1
07.12.2019 05:00:00 6,9 6,3 6,2 4,3 2,3 7,3 26 14 44 24 W 1013,3 9 0 0,6
07.12.2019 04:00:00 6,9 6,8 6,4 4,0 2,0 7,3 24 13 47 26 W 1012,8 13 0 0,4
07.12.2019 03:00:00 6,8 6,7 6,3 3,4 1,8 7,3 35 19 53 28 W 1012,3 20 0 0,9
07.12.2019 02:00:00 6,0 6,0 5,6 2,5 1,7 7,4 27 15 48 26 WSW 1012,0 1,1 0 0,5
07.12.2019 01:00:00 5,5 5,5 5,1 0,6 1,6 7,4 32 18 46 25 WSW 1012,1 0,6 0 0,8
07.12.2019 00:00:00 4,1 4,1 3,7 0,3 1,7 7,5 27 14 39 21 WSW 1012,6 0,2 0 0,9
06.12.2019 23:00:00 3,2 3,2 2,8 0,3 1,7 7,5 25 13 37 20 WSW 1013,1 1,4 0 1,3
06.12.2019 22:00:00 2,8 2,6 2,3 0,3 1,8 7,5 26 14 45 24 WSW 1013,6 2,2 0 0,0
06.12.2019 21:00:00 2,8 2,5 2,1 0,3 1,8 7,6 24 13 41 22 SW 1013,9 8 0 0,3
06.12.2019 20:00:00 2,8 2,6 2,2 0,2 1,9 7,6 24 13 37 20 SW 1014,5 7 0 1,2
06.12.2019 19:00:00 2,4 2,3 1,9 0,2 1,9 7,6 23 12 31 17 WSW 1015,0 2,5 0 1,7
06.12.2019 18:00:00 2,1 2,1 1,6 0,2 1,9 7,6 16 8 28 15 SW 1015,3 1,5 0 1,6
06.12.2019 17:00:00 1,8 1,8 1,4 0,2 1,9 7,6 18 10 25 13 WSW 1015,8 2,0 0 0,7
06.12.2019 16:00:00 1,4 1,4 1,1 0,2 1,9 7,6 13 7 21 11 WSW 1016,3 0,5 0 0,0
06.12.2019 15:00:00 1,0 1,0 0,8 0,2 1,9 7,7 14 7 21 12 WSW 1016,8 0,2 0 0,0
06.12.2019 14:00:00 0,1 0,1 0,0 0,2 1,9 7,7 12 6 18 10 SW 1017,7 0,1 0 0,0
06.12.2019 13:00:00 0,0 0,0 -0,1 0,2 1,9 7,7 9 5 14 8 WSW 1018,7 0,1 0 0,0
06.12.2019 12:00:00 -0,2 -0,2 -0,1 0,2 1,9 7,7 10 5 14 8 WSW 1019,6 0,1 0 0,0
06.12.2019 11:00:00 -0,4 -0,4 -0,3 0,1 1,9 7,7 10 6 17 9 SW 1020,8 0,1 0 0,0
06.12.2019 10:00:00 -0,8 -0,8 -0,7 0,1 1,9 7,7 11 6 20 11 WSW 1020,8 0,1 0 0,0
06.12.2019 09:00:00 -1,0 -1,0 -0,9 0,1 1,9 7,7 14 7 18 10 WSW 1020,8 0,1 0 0,0
06.12.2019 08:00:00 -1,3 -1,3 -1,2 0,1 1,9 7,7 11 6 22 12 WSW 1020,9 0,1 0 0,0
06.12.2019 07:00:00 -1,6 -1,6 -1,5 0,1 2,0 7,7 13 7 26 14 WSW 1021,1 0,1 0 0,0
06.12.2019 06:00:00 -2,0 -2,2 -1,8 0,1 2,0 7,7 18 10 25 13 WSW 1021,4 0,1 0 0,0
06.12.2019 05:00:00 -2,1 -2,2 -1,9 0,1 2,0 7,7 16 9 24 13 WSW 1021,7 0,1 0 0,0
06.12.2019 04:00:00 -2,4 -2,6 -2,2 0,2 2,0 7,7 16 9 23 12 WSW 1022,3 0,1 0 0,0
06.12.2019 03:00:00 -2,7 -2,9 -2,4 0,2 2,0 7,7 16 9 22 12 WSW 1022,6 0,1 0 0,0
06.12.2019 02:00:00 -3,0 -3,3 -2,7 0,2 2,0 7,8 16 9 25 13 WSW 1022,9 0,1 0 0,0
06.12.2019 01:00:00 -3,3 -3,6 -3,0 0,2 2,0 7,8 17 9 24 13 W 1023,3 0,2 0 0,0
06.12.2019 00:00:00 -2,8 -3,1 -2,5 0,3 2,1 7,8 15 8 23 12 W 1023,6 0,1 0 0,0
05.12.2019 23:00:00 -2,0 -2,1 -1,8 0,3 2,1 7,8 13 7 22 12 WSW 1023,4 0,1 0 0,0
05.12.2019 22:00:00 -1,8 -1,8 -1,6 0,3 2,1 7,8 13 7 20 11 W 1023,8 0,1 0 0,0
05.12.2019 21:00:00 -1,8 -1,8 -1,6 0,3 2,1 7,8 12 7 19 11 W 1023,8 0,1 0 0,0
05.12.2019 20:00:00 -1,9 -2,0 -1,8 0,3 2,1 7,8 11 6 16 8 WSW 1024,1 0,1 0 0,0
05.12.2019 19:00:00 -2,0 -2,0 -1,8 0,2 2,1 7,8 11 6 17 9 W 1024,2 0,1 0 0,0
05.12.2019 18:00:00 -2,1 -2,1 -1,8 0,2 2,1 7,8 8 5 16 8 W 1024,1 0,1 0 0,0
05.12.2019 17:00:00 -2,3 -2,5 -2,0 0,2 2,1 7,8 11 6 15 8 W 1024,2 0,1 0 0,0
05.12.2019 16:00:00 -2,4 -2,4 -1,9 0,2 2,2 7,8 6 4 13 7 W 1023,9 0,1 0 0,0
05.12.2019 15:00:00 -2,3 -2,3 -1,6 0,2 2,2 7,8 6 3 14 7 W 1024,0 0,1 0 0,0
05.12.2019 14:00:00 -2,3 -2,5 -1,5 0,2 2,2 7,8 10 5 13 7 WSW 1024,1 0,1 0 0,0
05.12.2019 13:00:00 -1,9 -2,0 -1,0 0,2 2,2 7,9 8 4 10 6 SW 1024,3 0,1 0 0,0
05.12.2019 12:00:00 -2,4 -2,6 -1,2 0,2 2,3 7,9 7 4 9 5 W 1024,8 0,1 0 0,0
05.12.2019 11:00:00 -2,6 -2,8 -1,9 0,1 2,3 7,9 0 0 8 5 N 1024,9 0,1 0 0,0

tt = Température de l'air
td = dewpoint
tt 5cm = Température de l'air 5cm
tt -5cm = Température de l'air -5cm
tt -20cm = Température de l'air -20cm
tt -100cm = Température de l'air -100cm
ff = Vitesse du vent
fx = gusts
dd = Direction du vent
ppp = reduced air pressure
vv = visibility
sd = Ensoleillement
rr = Quantités de précipitations

stations d'obs. à proximité